STARLINK-30515, 57983

Orbit data source: Space-Track

STARLINK-30515, 57983 is a payload satellite owned by SpaceX/Seattle (US) in LEO that was launched on Sat, 30 Sep 2023 UTC via an FALCON 9 launch vehicle from the Air Force Eastern Test Range (AFETR). Payload-class satellites include a variety of spacecraft equipped with specific instruments for various scientific and technological missions. These include communications satellites like Starlink; space stations such as the ISS; scientific satellites like the Hubble; Earth observation satellites from companies like Planet Labs, Umbra, and HawkEye 360; GPS; miniature CubeSats for education and research; and military/defense satellites.

Loading next visibility...
Identifier
57983, 2023-151V
Orbit
LEO
Country
Flag of USUS
Related business
Manufacturer
SpaceX/Seattle
Mission
Operational Commercial Communications
Bus & Motor
STARLINK V2M, Unknown motor
Mass
730 kg wet, ~700 kg dry
Launch date (UTC)
2023-09-30 (3 years ago)
Launch vehicle
FALCON 9
Launch site
Air Force Eastern Test Range (AFETR)
Object type
Payload
Rocket body
Debris
Shape & HBR
Box + 2 Pan, 17.7 m
Radar Cross Section
33.884 m², Large (>1 m²)

Expand to show TLE details & history
Last TLE update: 1 day ago

TLE from 1 day ago
0 STARLINK-30515
1 57983U 23151V   26236.40210348  .00000403  00000-0  24184-4 0  9995
2 57983  43.0034 126.8663 0001291 271.7137  88.3566 15.27580122161198
Epoch: 2026-08-24T09:39Z
TLE epoch observation values (Epoch: 2026-08-24T09:39:01.740Z)
Latitude
-0.00008°
Longitude
9.42464°
Altitude
482.799 km
Speed
7.626 km/s
True Right ascension
08h 27m 27s
True Declination
0° 00' 00"
Sunlit
Object was in daylight at epoch
Visualization orbit readout
Latitude
Unknown
Longitude
Unknown
Altitude
Unknown
Speed
Unknown
Apparent Right ascension
Unknown
Apparent Declination
Unknown
Sunlit
N/A
Visualization observer readout
Local Sidereal Time
02:30:36
Azimuth
Unknown
Elevation
Unknown
Doppler factor
Unknown
Orbital elements
Apogee altitude
485.879 km
Perigee altitude
484.107 km
Semi-major axis
6,863.13 km
Eccentricity
0.00013
Inclination
43.0034°
RAAN
126.8663°
Arg. of periapsis
271.7137°
True anomaly
88.37139°
Mean anomaly
88.3566°
Eccentric anomaly
88.36399°
Mean motion
3.81733 °/min
Orbital period
94.31 mins
BSTAR
0.000024184
Loading maneuver chart data...
Computing Atmospheric mass density...
Loading historical data...
Loading historical data...
Loading historical data...
Loading historical data...
Loading historical data...
Loading historical data...
Loading historical data...

Documentation

Showing up to 5 results
|